Weather History for EGOV - November, 2013

Change the Weather History Date:

Monday, November 18, 2013

  Actual Average Record
Temperature  
Mean Temperature 46 °F -  
Max Temperature 50 °F 49 °F 57 °F (1997)
Min Temperature 41 °F 40 °F 32 °F (2005)
Degree Days  
Heating Degree Days 20    
Moisture  
Dew Point 43 °F    
Average Humidity 83    
Maximum Humidity 100    
Minimum Humidity 57    
Precipitation  
Precipitation 0.08 in 0.13 in - ()
Sea Level Pressure  
Sea Level Pressure 29.87 in    
Wind  
Wind Speed 13 mph ()    
Max Wind Speed 18 mph    
Max Gust Speed -    
Visibility 6.8 miles    
Events Rain    
Averages and records for this station are not official NWS values.
T = Trace of Precipitation, MM = Missing Value Source: Averaged Metar Reports

Daily Weather History Graph

Daily Weather History Graph

Search for Another Location

Airport or City:

Trip Planner

Search our weather history database for the weather conditions in past years. The results will help you decide how hot, cold, wet, or windy it might be!

Date:

Astronomy

Nov. 18, 2013 Rise Set
Actual Time 7:48 AM GMT 4:17 PM GMT
Civil Twilight 7:09 AM GMT 4:56 PM GMT
Nautical Twilight 6:26 AM GMT 5:39 PM GMT
Astronomical Twilight 5:45 AM GMT 6:20 PM GMT
Moon 5:06 PM GMT (11/18) 8:25 AM GMT (11/18)
Length of Visible Light 9h 47m
Length of Day
8h 29m
Full, 99% of the Moon is Illuminated
Nov 18
Full
Nov 25
Last Quarter
Dec 3
New
Dec 9
First Quarter
Dec 17
Full

Hourly Weather History & Observations

Time (GMT) Temp. Windchill Dew Point Humidity Pressure Visibility Wind Dir Wind Speed Gust Speed Precip Events Conditions
12:00 AM 51 °F - 50 °F 95% 29.99 in 5 mi South 18.4 mph - - Rain Light Drizzle
12:28 AM 51.8 °F - 50.0 °F 94% 29.95 in 1.5 mi South 17.3 mph - N/A   Drizzle
12:50 AM 51.8 °F - 50.0 °F 94% 29.95 in 4.3 mi South 16.1 mph - N/A   Light Drizzle
1:50 AM 51.8 °F - 50.0 °F 94% 29.92 in 6.2 mi South 16.1 mph - N/A   Mostly Cloudy
2:24 AM 51.8 °F - 51.8 °F 100% 29.89 in 6.2 mi SSW 16.1 mph - N/A   Mostly Cloudy
2:50 AM 51.8 °F - 51.8 °F 100% 29.89 in 3.7 mi SSW 16.1 mph - N/A   Light Drizzle
3:00 AM 52 °F - 51 °F 95% 29.89 in 4 mi SSW 16.1 mph - - Rain Light Drizzle
3:50 AM 51.8 °F - 50.0 °F 94% 29.86 in 6.2 mi SW 18.4 mph - N/A   Light Drizzle
4:09 AM 51.8 °F - 50.0 °F 94% 29.86 in 1.6 mi SW 16.1 mph - N/A   Drizzle
4:28 AM 51.8 °F - 51.8 °F 100% 29.86 in 0.9 mi SW 15.0 mph - N/A   Drizzle
4:38 AM 50.0 °F - 50.0 °F 100% 29.86 in 1.4 mi WSW 17.3 mph - N/A   Drizzle
4:50 AM 48.2 °F - 48.2 °F 100% 29.86 in 2.2 mi NNW 15.0 mph - N/A   Light Drizzle
5:50 AM 46.4 °F 40.1 °F 44.6 °F 93% 29.86 in 6.2 mi North 15.0 mph - N/A   Light Drizzle
6:00 AM 46 °F - 45 °F 93% 29.86 in 14 mi North 15.0 mph - - Rain Light Drizzle
6:50 AM 46.4 °F 42.4 °F 44.6 °F 93% 29.86 in 6.2 mi North 8.1 mph - N/A Rain Rain
7:50 AM 46.4 °F 42.9 °F 44.6 °F 93% 29.86 in 6.2 mi North 6.9 mph - N/A   Mostly Cloudy
8:50 AM 48.2 °F - 42.8 °F 82% 29.86 in 6.2 mi NNW 8.1 mph - N/A   Mostly Cloudy
9:00 AM 47 °F - 42 °F 79% 29.87 in 25 mi NNW 8.1 mph - -   Mostly Cloudy
9:50 AM 48.2 °F - 41.0 °F 76% 29.86 in 6.2 mi NW 10.4 mph - N/A   Mostly Cloudy
10:50 AM 48.2 °F - 42.8 °F 82% 29.86 in 6.2 mi NW 10.4 mph - N/A   Mostly Cloudy
11:24 AM 50.0 °F - 42.8 °F 76% 29.86 in 6.2 mi NW 10.4 mph - N/A Rain Light Rain Showers
11:50 AM 48.2 °F - 44.6 °F 87% 29.86 in 6.2 mi NW 13.8 mph - N/A   Mostly Cloudy
12:00 PM 48 °F - 44 °F 81% 29.86 in 19 mi NW 13.8 mph - - Rain Light Rain Showers
12:40 PM 48.2 °F - 44.6 °F 87% 29.86 in 6.2 mi NW 17.3 mph - N/A Rain Light Rain Showers
12:50 PM 48.2 °F - 44.6 °F 87% 29.83 in 6.2 mi NW 11.5 mph - N/A Rain Light Rain Showers
1:23 PM 48.2 °F - 42.8 °F 82% 29.83 in 6.2 mi NNW 13.8 mph - N/A   Scattered Clouds
1:50 PM 48.2 °F - 41.0 °F 76% 29.83 in 6.2 mi NNW 16.1 mph - N/A   Mostly Cloudy
2:50 PM 48.2 °F - 39.2 °F 71% 29.86 in 6.2 mi NNW 17.3 mph - N/A   Mostly Cloudy
3:00 PM 47 °F - 40 °F 68% 29.86 in 19 mi NNW 17.3 mph - - Rain Light Rain Showers
3:50 PM 46.4 °F 39.8 °F 35.6 °F 66% 29.86 in 6.2 mi NNW 16.1 mph - N/A   Mostly Cloudy
4:50 PM 44.6 °F 38.1 °F 33.8 °F 66% 29.86 in 6.2 mi NNW 13.8 mph - N/A   Scattered Clouds
5:50 PM 44.6 °F 39.2 °F 35.6 °F 71% 29.86 in 6.2 mi NNW 10.4 mph - N/A Rain Light Rain Showers
6:00 PM 45 °F - 35 °F 58% 29.88 in 16 mi NNW 10.4 mph - - Rain Light Rain Showers
6:50 PM 42.8 °F 36.6 °F 33.8 °F 70% 29.86 in 6.2 mi NW 11.5 mph - N/A   Partly Cloudy
7:50 PM 42.8 °F 36.6 °F 33.8 °F 70% 29.89 in 6.2 mi NW 11.5 mph - N/A Rain Light Rain Showers
8:50 PM 42.8 °F 35.4 °F 33.8 °F 70% 29.89 in 6.2 mi WNW 15.0 mph - N/A   Scattered Clouds
9:00 PM 44 °F - 34 °F 57% 29.89 in 19 mi WNW 15.0 mph - - Rain Light Rain Showers
9:50 PM 41.0 °F 33.1 °F 33.8 °F 76% 29.89 in 6.2 mi WNW 15.0 mph - N/A   Light Small Hail Showers
10:50 PM 42.8 °F 35.8 °F 33.8 °F 70% 29.86 in 6.2 mi WNW 13.8 mph - N/A   Scattered Clouds
11:50 PM 41.0 °F 32.8 °F 32.0 °F 70% 29.89 in 6.2 mi NW 16.1 mph - N/A   Partly Cloudy